Billings, MT

8:24 PM MDT on September 01, 2015 (GMT -0600)
South of Castle Rock Park | | Change Station
CLOSE
Current Station
Personal Weather Station
Location: Billings, MT
Elevation: 3297 ft
Nearby Weather Stations

Elev 3297 ft 45.82 °N, 108.50 °W | Updated 4 seconds ago

Partly Cloudy
Partly Cloudy
82.6 °F
Feels Like 80 °F
N
0.0
Wind Variable Wind from ENE
Gusts 0.0 mph

Today
High -- | Low -- °F
--% Chance of Precip.
Yesterday
High -- | Low -- °F
Precip. -- in
6:34 AM 7:52 PM
Waning Gibbous, 84% visible
Pressure 29.70 in
Visibility 10.0 miles
Clouds Few 12000 ft
Heat Index 80 °F
Dew Point 41 °F
Humidity 23%
Rainfall 0.00 in
Snow Depth Not available.
UV 0 out of 12
Pollen 9.10 out of 12
Air Quality Not available.
Flu Activity Not available.
METAR KBIL 020153Z 07007KT 10SM FEW120 27/M01 A2979 RMK AO2 SLP058 T02721006
Pressure 29.70 in
Visibility 10.0 miles
Clouds Few 12000 ft
Heat Index 80 °F
Dew Point 41 °F
Humidity 23%
Rainfall 0.00 in
Snow Depth Not available.
UV 0 out of 12
Pollen 9.10 out of 12
Air Quality Not available.
Flu Activity Not available.
METAR KBIL 020153Z 07007KT 10SM FEW120 27/M01 A2979 RMK AO2 SLP058 T02721006

10-Day Weather Forecast

×

Almanac

Astronomy

Sep. 01, 2015 Rise Set
Actual Time
Civil Twilight
Nautical Twilight
Astronomical Twilight
Moon
Length of Visible Light
Length of Day
Tomorrow will be .
, % of the Moon is Illuminated

Today's Extremes

State Highs State Lows

Community

WunderPhotos

Upload Photos

1,851,679 photos uploaded!

WunderBlogs® & News

Nearby

Air Quality

  Air Quality AQ Index Pollutant
Not available.

Snow Depth

Station Depth Elevation

Earthquake Activity

City Distance Mag. Time & Date
Minimum magnitude displayed is 2.5.

Coastal Water Temperatures

Place Temperature

Stations

Nearby Weather Stations

Station Location Temp. Windchill Dew Point Humidity Wind Precip. Elev Updated Type